{"data":{"norad_id":57618,"intl_designator":"2023-119S","name":"STARLINK-30249","alt_names":[],"object_type":"PAYLOAD","status":"ACTIVE","operator":null,"country":"US","launch_date":"2023-08-11","launch_site_code":"AFETR","launch_vehicle":null,"mission":null,"orbit_class":"UNKNOWN","rcs_meters":null,"size_class":null,"mass_kg":null,"dimensions":null,"purposes":["comms"],"wikipedia_slug":null,"has_3d_model":false,"image_url":null,"decayed_at":null,"tle_current":{"epoch":"2026-09-20T04:14:17.615328Z","epoch_age_seconds":155919,"freshness":"FRESH","line1":"1 57618U 23119S   26263.17659277 -.00001073  00000+0 -29466-4 0  9999","line2":"2 57618  43.0042  62.9689 0001692 268.4371  91.6287 15.27586353172830","mean_motion":15.27586353,"eccentricity":0.0001692,"inclination_deg":43.0042,"raan_deg":62.9689,"arg_perigee_deg":268.4371,"mean_anomaly_deg":91.6287,"bstar":-2.9466e-5,"rev_number":17283,"period_min":94.266356672538,"perigee_km":481.86916346936,"apogee_km":484.19098240684,"semimajor_km":6861.1670729381,"source":"CELESTRAK","updated_at":"2026-09-21T09:00:33.663739Z"}}}